[[{"header":{"parameterUnit":"m.s-1","parameterCategory":1,"la1":30.2991,"la2":30.254,"lo1":-89.0895,"lo2":-89.0444,"dy":0.0017,"dx":0.0017,"nx":28,"ny":28,"refTime":"2025-02-27T03:00:00:Z","depth":0,"parameterNumber":2,"parameterNumberName":"U-component_of_WINDS"},"data":[0,0,0,0,0,0,0,0,0,0,0,0,0,0,0,0,0,0,0,0,0,0,0,0,0,0,0,0,0,0,0,0,0,0,0,0,0,0,0,0,0,0,0,0,0,0,0,0,0,0,0,0,0,0,0,0,0,0,-0.0225,-0.0225,0,-0.0199,-0.0199,-0.0198,-0.0182,-0.0182,-0.0182,-0.0181,-0.0156,-0.0155,-0.0155,0,0,0,0,0,0,0,0,0,0,0,0,0,-0.0262,-0.0261,-0.0225,-0.0225,-0.0224,-0.0199,-0.0199,-0.0198,-0.0182,-0.0182,-0.0182,-0.0181,-0.0156,-0.0155,-0.0154,0,0,0,0,0,0,0,0,0,0,0,0,0,-0.0242,-0.0261,-0.0225,-0.0213,-0.0212,-0.0199,-0.0199,-0.0198,-0.0182,-0.0182,-0.0181,-0.0181,-0.0156,-0.0155,-0.0154,-0.0152,0,0,-0.0152,-0.0151,0,0,0,0,0,0,0,0,-0.0243,-0.024,-0.0215,-0.0214,-0.0212,-0.0193,-0.0202,-0.0183,-0.0182,-0.0193,-0.0181,-0.0181,-0.0168,-0.0167,-0.0162,-0.0151,-0.015,-0.0152,-0.0151,-0.0151,-0.015,0,0,0,0,0,0,0,-0.0244,-0.0241,-0.0215,-0.0215,-0.0213,-0.0209,-0.0206,-0.0198,-0.0182,-0.0192,-0.0191,-0.0188,-0.0168,-0.0163,-0.0161,-0.0149,-0.0152,-0.0151,-0.015,-0.015,-0.0136,-0.0136,0,0,0,0,0,0,-0.0247,-0.0243,-0.0216,-0.0214,-0.0228,-0.0209,-0.0205,-0.02,-0.0182,-0.0179,-0.0188,-0.0187,-0.0165,-0.0162,-0.016,-0.0157,-0.0151,-0.015,-0.0149,-0.0135,-0.0136,-0.0136,0,0,0,0,0,0,-0.0248,-0.0245,-0.0217,-0.0228,-0.0224,-0.0208,-0.0202,-0.0199,-0.0195,-0.0179,-0.0176,-0.0186,-0.0164,-0.0162,-0.0154,-0.0156,-0.0149,-0.0149,-0.0135,-0.0136,-0.0136,-0.015,0,0,0,0,0,0,-0.0249,-0.0246,-0.0244,-0.0228,-0.0224,-0.0211,-0.0202,-0.0199,-0.0193,-0.0192,-0.0176,-0.0174,-0.0164,-0.0156,-0.0153,-0.0154,-0.0148,-0.0135,-0.0135,-0.0136,-0.0149,-0.015,-0.0152,0,0,0,0,0,-0.0251,-0.0249,-0.0244,-0.0241,-0.0222,-0.0211,-0.0208,-0.0197,-0.0193,-0.0192,-0.0182,-0.0174,-0.0156,-0.0155,-0.0152,-0.0153,-0.0135,-0.0135,-0.0136,-0.0149,-0.015,-0.0152,0,0,0,0,0,0,-0.0266,-0.0247,-0.0241,-0.0234,-0.0224,-0.0208,-0.0206,-0.0199,-0.019,-0.0189,-0.0175,-0.0172,-0.0166,-0.0159,-0.0158,-0.015,-0.0145,-0.0144,-0.0155,-0.0157,-0.0158,-0.016,-0.0147,0,0,0,0,0,-0.0269,-0.0262,-0.0245,-0.0241,-0.0236,-0.0222,-0.0217,-0.0209,-0.0198,-0.0194,-0.0183,-0.0174,-0.0166,-0.0161,-0.0152,-0.0148,-0.0145,-0.0147,-0.0148,-0.0149,-0.015,-0.0147,-0.0148,-0.0137,-0.0137,-0.0137,0,0,-0.0274,-0.0263,-0.0259,-0.0244,-0.0235,-0.0228,-0.0219,-0.0212,-0.0207,-0.0193,-0.0186,-0.0178,-0.0166,-0.016,-0.0157,-0.0154,-0.0152,-0.015,-0.0151,-0.015,-0.0148,-0.0149,-0.015,-0.0137,-0.0137,-0.0137,0,0,-0.028,-0.0271,-0.0266,-0.0258,-0.0245,-0.0236,-0.0235,-0.0219,-0.0214,-0.0206,-0.0196,-0.019,-0.0176,-0.0168,-0.0162,-0.0166,-0.0159,-0.0164,-0.017,-0.0168,-0.0169,-0.017,-0.0172,-0.0172,-0.0164,-0.0164,-0.0164,0,-0.0289,-0.0278,-0.0265,-0.0259,-0.0253,-0.024,-0.0235,-0.0228,-0.0213,-0.0209,-0.0206,-0.0189,-0.018,-0.0172,-0.0173,-0.0169,-0.0168,-0.0166,-0.017,-0.017,-0.0171,-0.0173,-0.0173,-0.0165,-0.0165,-0.0164,-0.0164,0,-0.0289,-0.0282,-0.028,-0.0265,-0.0259,-0.0254,-0.0241,-0.0236,-0.0228,-0.022,-0.0212,-0.0201,-0.0191,-0.0188,-0.0181,-0.018,-0.0178,-0.0172,-0.0166,-0.0173,-0.0174,-0.0175,-0.0166,-0.0165,-0.0165,-0.0165,0,0,-0.0304,-0.0283,-0.0283,-0.0276,-0.0261,-0.0255,-0.025,-0.0239,-0.0236,-0.0226,-0.0221,-0.021,-0.0205,-0.0198,-0.019,-0.0188,-0.0193,-0.0183,-0.0182,-0.0185,-0.0191,-0.0196,-0.0197,-0.0188,-0.0188,-0.0188,-0.0193,0,-0.0309,-0.0298,-0.0286,-0.0279,-0.0273,-0.0261,-0.0256,-0.0246,-0.0238,-0.0232,-0.0223,-0.0215,-0.0209,-0.0205,-0.0202,-0.0193,-0.0194,-0.0192,-0.0184,-0.0184,-0.0188,-0.0198,-0.0202,-0.0208,-0.0193,-0.0193,-0.0193,0,-0.0312,-0.0303,-0.0296,-0.0281,-0.0278,-0.0274,-0.0264,-0.0258,-0.0247,-0.0241,-0.0234,-0.0225,-0.0219,-0.0214,-0.0206,-0.0205,-0.0201,-0.0196,-0.0196,-0.0195,-0.0189,-0.0198,-0.0209,-0.021,-0.0194,-0.0194,-0.0194,0,-0.0325,-0.031,-0.0304,-0.0299,-0.0282,-0.028,-0.0273,-0.0262,-0.0256,-0.0248,-0.0244,-0.0235,-0.023,-0.0223,-0.0212,-0.0209,-0.0205,-0.0199,-0.0201,-0.0201,-0.0201,-0.0201,-0.0212,-0.0198,-0.0198,-0.0198,-0.0198,0,-0.0331,-0.0327,-0.031,-0.0306,-0.0301,-0.0289,-0.0285,-0.0277,-0.0267,-0.0262,-0.0251,-0.0246,-0.0232,-0.0226,-0.0217,-0.0212,-0.021,-0.0205,-0.0203,-0.0207,-0.0207,-0.0204,-0.0204,-0.0198,-0.0198,-0.0198,-0.0198,0,-0.0344,-0.0332,-0.0325,-0.031,-0.0306,-0.0303,-0.0291,-0.0287,-0.0278,-0.0272,-0.027,-0.0256,-0.0248,-0.0237,-0.0225,-0.022,-0.0216,-0.0212,-0.022,-0.0219,-0.0222,-0.0222,-0.0231,-0.0232,-0.0217,-0.0217,-0.0217,0,-0.0349,-0.0346,-0.0331,-0.0326,-0.032,-0.0313,-0.0307,-0.0295,-0.0289,-0.0277,-0.0275,-0.0266,-0.0259,-0.0247,-0.0237,-0.0228,-0.0224,-0.0228,-0.0223,-0.0227,-0.0225,-0.0226,-0.0226,-0.023,-0.023,-0.023,-0.023,0,-0.036,-0.0354,-0.0346,-0.0337,-0.0331,-0.0323,-0.0314,-0.0311,-0.0297,-0.0292,-0.0284,-0.0278,-0.0266,-0.0258,-0.0248,-0.0242,-0.0234,-0.0232,-0.0232,-0.0236,-0.0241,-0.0239,-0.0224,-0.0232,-0.0232,-0.0232,-0.0232,-0.0232,-0.0369,-0.0366,-0.0355,-0.0347,-0.0339,-0.0332,-0.0327,-0.0318,-0.0311,-0.0301,-0.0294,-0.0286,-0.0276,-0.0262,-0.0256,-0.025,-0.0247,-0.0247,-0.0247,-0.0247,-0.0249,-0.0241,-0.0248,-0.0248,-0.0248,-0.0248,-0.0248,0,-0.038,-0.0372,-0.0365,-0.0353,-0.0347,-0.034,-0.033,-0.0326,-0.0319,-0.031,-0.0303,-0.0294,-0.0286,-0.0275,-0.0267,-0.0264,-0.026,-0.0262,-0.0263,-0.0261,-0.0252,-0.0253,-0.0266,-0.0266,-0.0266,-0.0266,-0.0266,-0.0266,-0.0384,-0.0379,-0.0372,-0.0363,-0.0355,-0.0347,-0.0343,-0.0336,-0.0328,-0.0319,-0.0312,-0.0305,-0.0295,-0.0286,-0.0279,-0.0275,-0.0273,-0.0276,-0.0272,-0.0264,-0.0262,-0.026,-0.0261,-0.0276,-0.0276,-0.0282,-0.0282,-0.0283]},{"header":{"parameterUnit":"m.s-1","parameterCategory":1,"la1":30.2991,"la2":30.254,"lo1":-89.0895,"lo2":-89.0444,"dy":0.0017,"dx":0.0017,"nx":28,"ny":28,"refTime":"2025-02-27T03:00:00:Z","depth":0,"parameterNumber":3,"parameterNumberName":"V-component_of_WINDS"},"data":[0,0,0,0,0,0,0,0,0,0,0,0,0,0,0,0,0,0,0,0,0,0,0,0,0,0,0,0,0,0,0,0,0,0,0,0,0,0,0,0,0,0,0,0,0,0,0,0,0,0,0,0,0,0,0,0,0,0,-1.2063,-1.2063,0,-1.2104,-1.2104,-1.2105,-1.2105,-1.2105,-1.2104,-1.2104,-1.2144,-1.2145,-1.2147,0,0,0,0,0,0,0,0,0,0,0,0,0,-1.1985,-1.1986,-1.2063,-1.2063,-1.2064,-1.2104,-1.2104,-1.2105,-1.2105,-1.2105,-1.2104,-1.2103,-1.2143,-1.2145,-1.2147,0,0,0,0,0,0,0,0,0,0,0,0,0,-1.2021,-1.1987,-1.2063,-1.2069,-1.207,-1.2103,-1.2104,-1.2105,-1.2105,-1.2105,-1.2104,-1.2103,-1.2143,-1.2145,-1.2147,-1.2177,0,0,-1.2154,-1.2155,0,0,0,0,0,0,0,0,-1.2019,-1.2024,-1.2068,-1.2069,-1.207,-1.2099,-1.2091,-1.2129,-1.2106,-1.2092,-1.2104,-1.2103,-1.2129,-1.2133,-1.2142,-1.2179,-1.218,-1.2154,-1.2156,-1.2157,-1.2158,0,0,0,0,0,0,0,-1.2017,-1.2022,-1.2079,-1.2068,-1.207,-1.2069,-1.2074,-1.2098,-1.2114,-1.2093,-1.2093,-1.2098,-1.213,-1.214,-1.2143,-1.2181,-1.2154,-1.2156,-1.2158,-1.2159,-1.2246,-1.2246,0,0,0,0,0,0,-1.2013,-1.202,-1.2078,-1.208,-1.2042,-1.2071,-1.2076,-1.209,-1.2114,-1.2117,-1.2099,-1.2098,-1.2136,-1.214,-1.2144,-1.2182,-1.2157,-1.2159,-1.216,-1.2245,-1.2246,-1.2247,0,0,0,0,0,0,-1.2011,-1.2018,-1.2076,-1.205,-1.2058,-1.2074,-1.2089,-1.2091,-1.2101,-1.2118,-1.2121,-1.2106,-1.2136,-1.2141,-1.2169,-1.2183,-1.216,-1.2162,-1.2244,-1.2245,-1.2246,-1.2256,0,0,0,0,0,0,-1.2009,-1.2018,-1.2029,-1.2051,-1.2059,-1.2101,-1.209,-1.2093,-1.2105,-1.2105,-1.2126,-1.2129,-1.2135,-1.2166,-1.2171,-1.2186,-1.2164,-1.2242,-1.2244,-1.2246,-1.2255,-1.2258,-1.226,0,0,0,0,0,-1.2006,-1.203,-1.203,-1.2037,-1.2074,-1.2101,-1.2106,-1.2114,-1.2106,-1.2118,-1.2129,-1.2128,-1.218,-1.2169,-1.2175,-1.219,-1.2242,-1.2244,-1.2246,-1.2254,-1.2257,-1.226,0,0,0,0,0,0,-1.2009,-1.2033,-1.2033,-1.2064,-1.2081,-1.2101,-1.2116,-1.2117,-1.2136,-1.2135,-1.2143,-1.2148,-1.2176,-1.2186,-1.2172,-1.2221,-1.221,-1.2214,-1.2214,-1.2218,-1.222,-1.2218,-1.2166,0,0,0,0,0,-1.2013,-1.2033,-1.2053,-1.2078,-1.2087,-1.21,-1.2112,-1.2117,-1.2135,-1.2142,-1.2155,-1.2171,-1.2192,-1.2205,-1.2224,-1.2256,-1.2261,-1.227,-1.2272,-1.2275,-1.2278,-1.2297,-1.2301,-1.2254,-1.2253,-1.2253,0,0,-1.2021,-1.2037,-1.2049,-1.2079,-1.2093,-1.2114,-1.2106,-1.2129,-1.2145,-1.2145,-1.2173,-1.2183,-1.2202,-1.2233,-1.2246,-1.2241,-1.2292,-1.2277,-1.2279,-1.2281,-1.2299,-1.2304,-1.2308,-1.2255,-1.2255,-1.2254,0,0,-1.2049,-1.2062,-1.2086,-1.21,-1.2121,-1.2129,-1.2135,-1.2156,-1.2163,-1.2191,-1.2192,-1.2211,-1.2246,-1.226,-1.2271,-1.2305,-1.2305,-1.2311,-1.2326,-1.2344,-1.2348,-1.2351,-1.2365,-1.2369,-1.2314,-1.2314,-1.2314,0,-1.2057,-1.2089,-1.2097,-1.2121,-1.2134,-1.2136,-1.216,-1.2173,-1.2199,-1.2208,-1.2202,-1.2247,-1.2259,-1.2294,-1.2302,-1.2311,-1.2318,-1.2309,-1.2347,-1.235,-1.2354,-1.2366,-1.2371,-1.2315,-1.2314,-1.2314,-1.2314,0,-1.2099,-1.2121,-1.2138,-1.2164,-1.2179,-1.2203,-1.2214,-1.2229,-1.2232,-1.2241,-1.2271,-1.2286,-1.231,-1.2318,-1.2321,-1.2353,-1.235,-1.2345,-1.2335,-1.2359,-1.2371,-1.2376,-1.2316,-1.2315,-1.2315,-1.2315,0,0,-1.2129,-1.216,-1.2166,-1.2179,-1.2202,-1.222,-1.2243,-1.2267,-1.228,-1.2297,-1.2318,-1.2348,-1.2344,-1.2357,-1.2362,-1.2378,-1.2405,-1.2371,-1.2372,-1.2378,-1.2443,-1.2447,-1.2453,-1.2405,-1.2405,-1.2406,-1.2442,0,-1.2159,-1.2203,-1.2211,-1.2248,-1.227,-1.2272,-1.2293,-1.2309,-1.2319,-1.2338,-1.2348,-1.237,-1.2363,-1.2371,-1.2387,-1.2398,-1.2418,-1.2396,-1.2424,-1.2425,-1.2421,-1.2459,-1.2463,-1.2496,-1.2447,-1.2447,-1.2448,0,-1.2201,-1.2222,-1.2261,-1.2283,-1.2293,-1.2311,-1.2335,-1.2353,-1.2372,-1.2378,-1.2393,-1.2396,-1.2421,-1.2409,-1.2443,-1.2428,-1.244,-1.2447,-1.2449,-1.2453,-1.2439,-1.2465,-1.2507,-1.2512,-1.2455,-1.2455,-1.2454,0,-1.2221,-1.2258,-1.2287,-1.2297,-1.2323,-1.2337,-1.2348,-1.2366,-1.2381,-1.24,-1.241,-1.2432,-1.2444,-1.2461,-1.247,-1.246,-1.2505,-1.2493,-1.2511,-1.2511,-1.2521,-1.2521,-1.2567,-1.2527,-1.2527,-1.2527,-1.2526,0,-1.2255,-1.228,-1.2297,-1.2314,-1.2342,-1.2351,-1.2379,-1.239,-1.2406,-1.2427,-1.2429,-1.2448,-1.2458,-1.2478,-1.2485,-1.2514,-1.2519,-1.2525,-1.2527,-1.2525,-1.2525,-1.2534,-1.2533,-1.2528,-1.2528,-1.2527,-1.2527,0,-1.2282,-1.2294,-1.2327,-1.2349,-1.2355,-1.2375,-1.2394,-1.2411,-1.2421,-1.2447,-1.2453,-1.2468,-1.2493,-1.2503,-1.2532,-1.2537,-1.257,-1.2569,-1.2564,-1.2565,-1.2583,-1.2582,-1.2638,-1.2647,-1.26,-1.26,-1.26,0,-1.2304,-1.2323,-1.2348,-1.2363,-1.2375,-1.2397,-1.2412,-1.2422,-1.2437,-1.2461,-1.2476,-1.25,-1.2521,-1.2559,-1.2572,-1.2595,-1.2596,-1.2614,-1.2599,-1.2598,-1.2598,-1.2597,-1.26,-1.2617,-1.2618,-1.2618,-1.2618,0,-1.2342,-1.2347,-1.2369,-1.2393,-1.2411,-1.243,-1.2449,-1.246,-1.2473,-1.249,-1.2515,-1.2531,-1.2562,-1.2587,-1.261,-1.2622,-1.2623,-1.2623,-1.2628,-1.2628,-1.2625,-1.2628,-1.2573,-1.2622,-1.2621,-1.2621,-1.2621,-1.2621,-1.2368,-1.2386,-1.2407,-1.2431,-1.2447,-1.2464,-1.2483,-1.2495,-1.2517,-1.2543,-1.2547,-1.2574,-1.2594,-1.2626,-1.2638,-1.266,-1.2655,-1.2663,-1.2665,-1.2668,-1.267,-1.262,-1.2664,-1.2664,-1.2664,-1.2664,-1.2664,0,-1.2408,-1.2422,-1.2444,-1.2471,-1.249,-1.2489,-1.251,-1.2527,-1.2551,-1.2569,-1.2589,-1.2619,-1.2643,-1.2659,-1.2683,-1.2697,-1.2698,-1.2703,-1.2703,-1.2706,-1.2671,-1.2665,-1.2702,-1.2702,-1.2702,-1.2702,-1.2702,-1.2702,-1.2431,-1.2462,-1.2469,-1.2508,-1.2521,-1.2549,-1.2561,-1.2578,-1.2592,-1.2626,-1.2646,-1.2656,-1.2674,-1.2699,-1.2722,-1.2726,-1.2735,-1.2741,-1.2745,-1.2712,-1.2708,-1.2704,-1.2698,-1.2742,-1.2742,-1.2778,-1.2778,-1.2778]}]]